Weather reports worldwide

Advertisment
Calatayud, Spain (8156): temperature & dewpoint: 13.01.2021 07:00:00 - 19.01.2021 07:00:00 (CET)Calatayud, Spain (8156): wind speed & gusts: 13.01.2021 07:00:00 - 19.01.2021 07:00:00 (CET)Calatayud, Spain (8156): wind direction: 13.01.2021 07:00:00 - 19.01.2021 07:00:00 (CET)Calatayud, Spain (8156): reduced air pressure: 13.01.2021 07:00:00 - 19.01.2021 07:00:00 (CET)Calatayud, Spain (8156): visibility: 13.01.2021 07:00:00 - 19.01.2021 07:00:00 (CET)Calatayud, Spain (8156): sunshine duration: 13.01.2021 07:00:00 - 19.01.2021 07:00:00 (CET)Calatayud, Spain (8156): precipitation: 13.01.2021 07:00:00 - 19.01.2021 07:00:00 (CET)
Date & Time tt [°C] td [°C] ff [km/h] ff [kn] fx [km/h] fx [kn] dd ppp [hPa] vv [km] sd [min] rr [mm]
19.01.2021 07:00:00 - - - - - - - - - - -
19.01.2021 06:00:00 -5,2 -6,4 1 1 3 2 ESE 1030,4 0,2 0 0,0
19.01.2021 05:00:00 -4,6 -5,7 2 1 5 3 NNW 1030,6 0,2 0 0,0
19.01.2021 04:00:00 -3,8 -5,1 1 1 4 2 W 1030,7 5 0 0,0
19.01.2021 03:00:00 -3,1 -4,8 2 1 4 2 E 1030,8 7 0 0,0
19.01.2021 02:00:00 -2,6 -4,2 1 1 5 3 N 1030,8 9 0 0,0
19.01.2021 01:00:00 -1,7 -3,3 1 1 4 2 N 1030,9 10 0 -
19.01.2021 00:00:00 -1,0 -3,0 2 1 4 2 S 1030,8 15 0 0,0
18.01.2021 23:00:00 -0,3 -2,5 2 1 5 3 SE 1030,4 18 0 0,0
18.01.2021 22:00:00 0,6 -2,2 3 1 5 3 ESE 1030,2 20 0 0,0
18.01.2021 21:00:00 1,7 -1,4 2 1 10 5 WSW 1029,5 20 0 0,0
18.01.2021 20:00:00 3,3 -0,5 9 5 16 9 S 1028,7 20 0 0,0
18.01.2021 19:00:00 5,5 -0,3 2 1 6 3 SSW 1027,8 20 0 -
18.01.2021 18:00:00 8,8 0,2 2 1 5 3 S 1026,5 20 55 0,0
18.01.2021 17:00:00 10,9 0,0 3 1 5 3 S 1025,7 20 60 0,0
18.01.2021 16:00:00 10,8 0,4 3 1 7 4 W 1025,9 20 60 0,0
18.01.2021 15:00:00 8,5 -0,5 3 2 6 4 NNE 1027,1 20 60 0,0
18.01.2021 14:00:00 6,8 -1,4 2 1 7 4 N 1028,3 20 60 0,0
18.01.2021 13:00:00 5,4 -2,0 2 1 6 3 WNW 1029,6 20 60 -
18.01.2021 12:00:00 2,3 -3,3 2 1 5 3 NNE 1031,8 17 60 0,0
18.01.2021 11:00:00 -1,8 -4,5 2 1 5 3 WNW 1033,1 20 31 0,0
18.01.2021 10:00:00 -3,7 -5,7 3 1 4 2 N 1033,4 20 0 0,0
18.01.2021 09:00:00 -4,4 -6,0 3 1 5 3 NNW 1033,4 20 0 0,0
18.01.2021 08:00:00 -4,2 -6,0 1 1 6 4 NE 1032,9 20 0 0,0
18.01.2021 07:00:00 -3,2 -5,4 1 1 5 3 NNE 1032,2 20 0 -
18.01.2021 06:00:00 -2,7 -5,1 1 1 7 4 SSE 1031,6 20 0 0,0
18.01.2021 05:00:00 -1,8 -4,8 3 1 11 6 E 1031,5 20 0 0,0
18.01.2021 04:00:00 -1,2 -4,2 1 1 8 4 WNW 1031,6 20 0 0,0
18.01.2021 03:00:00 -0,3 -3,3 2 1 13 7 E 1031,3 20 0 0,0
18.01.2021 02:00:00 0,5 -3,3 6 4 11 6 S 1031,3 20 0 0,0
18.01.2021 01:00:00 2,0 -3,0 3 1 10 5 S 1031,0 20 0 -
18.01.2021 00:00:00 1,6 -2,7 5 3 8 4 S 1031,4 20 0 0,0
17.01.2021 23:00:00 2,7 -2,7 3 1 14 7 ESE 1031,0 20 0 0,0
17.01.2021 22:00:00 3,2 -3,0 6 4 13 7 S 1030,5 20 0 0,0
17.01.2021 21:00:00 4,3 -3,0 5 3 11 6 SSW 1029,9 20 0 0,0
17.01.2021 20:00:00 5,1 -2,7 4 2 10 6 SSW 1029,6 20 0 0,0
17.01.2021 19:00:00 5,9 -3,6 2 1 9 5 SSW 1029,1 20 0 -
17.01.2021 18:00:00 9,0 -4,2 1 1 6 3 ENE 1027,9 20 53 0,0
17.01.2021 17:00:00 10,5 -4,8 2 1 6 4 W 1027,4 20 52 0,0
17.01.2021 16:00:00 10,7 -5,7 3 1 6 3 ESE 1027,5 20 60 0,0
17.01.2021 15:00:00 8,0 -4,8 4 2 7 4 NNE 1028,5 20 60 0,0
17.01.2021 14:00:00 5,8 -3,9 3 1 5 3 NE 1029,8 20 60 0,0
17.01.2021 13:00:00 3,8 -4,5 2 1 5 3 NW 1031,5 20 60 -
17.01.2021 12:00:00 1,5 -4,5 3 2 6 4 W 1033,3 20 60 0,0
17.01.2021 11:00:00 -3,6 -6,0 3 2 6 3 NNE 1035,0 20 29 0,0
17.01.2021 10:00:00 -5,6 -7,5 3 1 6 3 E 1035,0 20 0 0,0
17.01.2021 09:00:00 -6,6 -8,2 4 2 6 3 SW 1034,9 20 0 0,0
17.01.2021 08:00:00 -6,4 -8,2 3 2 6 4 NNW 1034,6 20 0 0,0
17.01.2021 07:00:00 -5,7 -7,5 2 1 5 3 ESE 1034,2 20 0 -
17.01.2021 06:00:00 -5,2 -7,1 3 2 5 3 E 1033,9 20 0 0,0
17.01.2021 05:00:00 -4,7 -6,7 2 1 6 3 WNW 1033,9 20 0 0,0
17.01.2021 04:00:00 -4,1 -6,0 1 1 6 3 WNW 1033,7 20 0 0,0
17.01.2021 03:00:00 -3,2 -5,1 1 1 7 4 SW 1033,5 20 0 0,0
17.01.2021 02:00:00 -2,7 -4,8 4 2 6 3 NE 1033,7 20 0 0,0
17.01.2021 01:00:00 -2,1 -4,2 3 2 9 5 ENE 1033,6 20 0 -
17.01.2021 00:00:00 -1,4 -4,2 7 4 11 6 NE 1033,7 18 0 0,0
16.01.2021 23:00:00 -0,8 -3,6 5 3 9 5 E 1033,4 20 0 0,0
16.01.2021 22:00:00 0,7 -3,3 3 2 8 4 ENE 1032,5 20 0 0,0
16.01.2021 21:00:00 1,4 -3,6 4 2 12 6 NE 1032,0 20 0 0,0
16.01.2021 20:00:00 2,8 -3,0 4 2 8 5 SSE 1031,2 20 0 0,0
16.01.2021 19:00:00 4,4 -2,2 3 2 9 5 S 1029,9 20 0 -
16.01.2021 18:00:00 7,5 -1,7 1 1 7 4 SE 1028,6 20 49 0,0
16.01.2021 17:00:00 9,7 -2,7 1 1 6 3 WSW 1027,5 20 60 0,0
16.01.2021 16:00:00 8,7 -2,5 5 3 9 5 E 1027,7 20 60 0,0
16.01.2021 15:00:00 9,1 -3,3 4 2 9 5 NE 1027,6 20 60 0,0
16.01.2021 14:00:00 8,3 -2,7 3 2 9 5 SE 1028,3 20 60 0,0
16.01.2021 13:00:00 6,0 -3,3 3 1 8 4 NW 1029,5 20 60 -
16.01.2021 12:00:00 5,2 -3,6 3 2 10 6 W 1030,2 20 60 0,0
16.01.2021 11:00:00 1,2 -3,9 4 2 8 4 S 1031,1 20 27 0,0
16.01.2021 10:00:00 -0,2 -4,2 4 2 16 9 S 1031,1 20 0 0,0
16.01.2021 09:00:00 -0,3 -4,2 5 3 17 9 SSW 1030,4 20 0 0,0
16.01.2021 08:00:00 -0,8 -4,5 4 2 20 11 SSW 1030,1 20 0 0,0
16.01.2021 07:00:00 0,2 -4,2 9 5 21 12 WSW 1029,5 20 0 -
16.01.2021 06:00:00 0,3 -3,9 9 5 22 12 SSW 1029,2 20 0 0,0
16.01.2021 05:00:00 0,8 -3,6 13 7 20 11 S 1028,6 20 0 0,0
16.01.2021 04:00:00 0,3 -3,3 13 7 21 11 SSE 1028,8 20 0 0,0
16.01.2021 03:00:00 -2,5 -4,8 5 3 13 7 E 1029,5 12 0 0,0
16.01.2021 02:00:00 -2,8 -4,2 4 2 10 5 W 1030,0 13 0 0,0
16.01.2021 01:00:00 -3,0 -4,8 4 2 9 5 SW 1030,3 6 0 -
16.01.2021 00:00:00 -2,5 -4,2 1 1 11 6 NNE 1030,7 9 0 0,0
15.01.2021 23:00:00 -1,8 -3,9 5 3 12 6 NE 1030,5 7 0 0,0
15.01.2021 22:00:00 -1,1 -3,0 5 3 13 7 NE 1030,2 10 0 0,0
15.01.2021 21:00:00 -1,1 -3,6 4 2 8 5 WSW 1030,1 9 0 0,0
15.01.2021 20:00:00 -0,1 -3,0 5 3 10 5 SSW 1030,0 8 0 0,0
15.01.2021 19:00:00 1,8 -1,7 2 1 5 3 S 1029,6 18 0 -
15.01.2021 18:00:00 5,5 -1,2 3 2 6 3 W 1027,8 19 51 0,0
15.01.2021 17:00:00 7,3 -0,7 4 2 6 4 SSE 1027,2 20 60 0,0
15.01.2021 16:00:00 6,5 -1,2 5 3 8 4 ENE 1027,6 17 60 0,0
15.01.2021 15:00:00 6,5 -1,0 3 1 8 4 SSW 1028,0 18 60 0,0
15.01.2021 14:00:00 4,5 -1,7 4 2 8 4 NE 1029,1 15 60 0,0
15.01.2021 13:00:00 3,0 -2,2 2 1 6 4 S 1030,6 8 39 -
15.01.2021 12:00:00 0,3 -3,3 3 2 7 4 NNE 1032,3 7 45 0,0
15.01.2021 11:00:00 -1,6 -3,6 2 1 5 3 SSW 1032,8 5 3 0,0
15.01.2021 10:00:00 -3,4 -4,8 3 1 5 3 WSW 1033,2 1,8 0 0,0
15.01.2021 09:00:00 -4,7 -6,0 4 2 5 3 WSW 1032,7 2,4 0 0,0
15.01.2021 08:00:00 -4,9 -6,4 2 1 5 3 SSW 1032,7 2,3 0 0,0
15.01.2021 07:00:00 -5,7 -7,1 3 1 6 3 W 1032,7 8 0 -
15.01.2021 06:00:00 -6,2 -7,8 1 1 5 3 SSW 1032,6 6 0 0,0
15.01.2021 05:00:00 -6,2 -7,8 2 1 6 3 ENE 1032,8 7 0 0,0
15.01.2021 04:00:00 -7,1 -8,6 4 2 6 3 NE 1033,1 7 0 0,0
15.01.2021 03:00:00 -7,4 -9,0 3 2 4 2 NNE 1032,8 6 0 0,0
15.01.2021 02:00:00 -7,3 -9,0 3 2 5 3 NE 1032,6 6 0 0,0
15.01.2021 01:00:00 -6,6 -8,6 2 1 5 3 SSE 1032,6 7 0 -
15.01.2021 00:00:00 -5,8 -7,8 4 2 7 4 NE 1032,6 7 0 0,0
14.01.2021 23:00:00 -5,4 -7,5 1 1 5 3 WSW 1032,4 7 0 0,0
14.01.2021 22:00:00 -5,7 -7,8 2 1 6 3 S 1032,3 8 0 0,0
14.01.2021 21:00:00 -5,8 -8,2 3 2 5 3 NNE 1032,0 7 0 0,0
14.01.2021 20:00:00 -5,1 -7,8 3 1 4 2 SE 1031,7 9 0 0,0
14.01.2021 19:00:00 -4,5 -7,5 3 2 6 3 ESE 1031,4 9 0 -
14.01.2021 18:00:00 -2,7 -6,7 2 1 8 4 E 1030,8 11 45 0,0
14.01.2021 17:00:00 -1,6 -6,4 4 2 7 4 SW 1030,1 15 51 0,0
14.01.2021 16:00:00 1,3 -5,7 3 1 7 4 SW 1028,8 15 60 0,0
14.01.2021 15:00:00 -1,6 -6,4 4 2 9 5 W 1029,9 14 59 0,0
14.01.2021 14:00:00 -1,5 -6,7 4 2 10 5 NW 1031,0 12 60 0,0
14.01.2021 13:00:00 -2,4 -7,5 4 2 8 4 W 1032,4 12 60 -
14.01.2021 12:00:00 -5,0 -8,6 4 2 7 4 SW 1033,7 11 60 0,0
14.01.2021 11:00:00 -7,9 -11,2 6 4 15 8 S 1034,6 20 31 0,0
14.01.2021 10:00:00 -9,1 -10,8 7 4 15 8 SSE 1035,0 12 0 0,0
14.01.2021 09:00:00 -9,4 -11,2 6 4 11 6 S 1034,8 13 0 0,0
14.01.2021 08:00:00 -10,3 -12,2 1 1 4 2 NW 1034,9 6 0 0,0
14.01.2021 07:00:00 -11,1 -12,8 1 1 4 2 W 1034,9 4,8 0 -
14.01.2021 06:00:00 -11,9 -13,9 3 1 4 2 SW 1035,3 0,4 0 0,0
14.01.2021 05:00:00 -11,2 -13,3 1 0 4 2 WNW 1035,3 0,4 0 0,0
14.01.2021 04:00:00 -11,2 -12,8 3 1 6 3 W 1035,6 0,4 0 0,0
14.01.2021 03:00:00 -10,8 -12,2 2 1 4 2 SW 1035,4 0,9 0 0,0
14.01.2021 02:00:00 -9,3 -10,8 2 1 5 3 ENE 1034,8 5 0 0,0
14.01.2021 01:00:00 -8,8 -10,8 1 1 4 2 NNE 1035,3 6 0 -
14.01.2021 00:00:00 -7,8 -9,4 2 1 4 2 NNE 1035,4 6 0 0,0
13.01.2021 23:00:00 -6,9 -9,0 1 1 4 2 W 1034,9 5 0 0,0
13.01.2021 22:00:00 -6,1 -8,2 2 1 3 2 W 1034,4 6 0 0,0
13.01.2021 21:00:00 -5,1 -7,8 4 2 5 3 ENE 1034,0 7 0 0,0
13.01.2021 20:00:00 -4,1 -7,1 5 3 6 4 NE 1033,3 8 0 0,0
13.01.2021 19:00:00 -2,4 -6,7 3 2 6 3 SSW 1032,5 12 0 -
13.01.2021 18:00:00 -0,2 -6,0 1 1 5 3 WNW 1031,7 17 48 0,0
13.01.2021 17:00:00 1,9 -6,0 3 2 6 3 W 1031,2 13 60 0,0
13.01.2021 16:00:00 1,8 -6,0 2 1 6 3 NNW 1031,4 18 60 0,0
13.01.2021 15:00:00 0,8 -7,1 2 1 5 3 NNW 1031,9 13 60 0,0
13.01.2021 14:00:00 -1,7 -8,2 3 2 6 3 N 1033,4 18 60 0,0
13.01.2021 13:00:00 -3,7 -9,4 2 1 7 4 SW 1035,2 13 60 -
13.01.2021 12:00:00 -6,8 -10,8 4 2 9 5 WNW 1036,9 19 60 0,0
13.01.2021 11:00:00 -9,8 -12,2 3 2 6 4 ENE 1038,1 13 32 0,0
13.01.2021 10:00:00 -11,7 -13,9 1 1 5 3 N 1038,7 9 0 0,0
13.01.2021 09:00:00 -12,8 -14,5 3 1 5 3 E 1038,5 11 0 0,0
13.01.2021 08:00:00 -13,0 -15,1 2 1 5 3 SW 1038,2 10 0 0,0
13.01.2021 07:00:00 -12,6 -14,5 3 2 6 3 ENE 1037,8 9 0 -

tt = temperature
td = dewpoint
ff = wind speed
fx = gusts
dd = wind direction
ppp = reduced air pressure
vv = visibility
sd = sunshine duration
rr = precipitation

Next stations